Pope AFB, NC

2:08 PM EST on February 22, 2017 (GMT -0500)
Pope Field Airport

Weather History for KPOB - November, 2013

Change the Weather History Date:

Wednesday, November 27, 2013

  Actual Average Record
Temperature  
Mean Temperature 49 °F -  
Max Temperature 68 °F 63 °F 81 °F (1985)
Min Temperature 29 °F 42 °F 19 °F (1991)
Degree Days  
Heating Degree Days 16    
Moisture  
Dew Point 46 °F    
Average Humidity 90    
Maximum Humidity 100    
Minimum Humidity 58    
Precipitation  
Precipitation 0.85 in - - ()
Sea Level Pressure  
Sea Level Pressure 29.63 in    
Wind  
Wind Speed 8 mph (NNW)    
Max Wind Speed 21 mph    
Max Gust Speed 33 mph    
Visibility 9 miles    
Events Rain    
Averages and records for this station are not official NWS values.
T = Trace of Precipitation, MM = Missing Value Source: NWS Daily Summary

Daily Weather History Graph

Daily Weather History Graph

Search for Another Location

Airport or City:

Trip Planner

Search our weather history database for the weather conditions in past years. The results will help you decide how hot, cold, wet, or windy it might be!

Date:

Astronomy

Nov. 27, 2013 Rise Set
Actual Time 7:02 AM EST 5:04 PM EST
Civil Twilight 6:35 AM EST 5:32 PM EST
Nautical Twilight 6:03 AM EST 6:03 PM EST
Astronomical Twilight 5:33 AM EST 6:34 PM EST
Moon 1:15 AM EST (11/27) 1:30 PM EST (11/27)
Length of Visible Light 10h 57m
Length of Day
10h 02m
Waning Crescent, 32% of the Moon is Illuminated
Nov 27
Waning Crescent
Dec 2
New
Dec 9
First Quarter
Dec 17
Full
Dec 25
Last Quarter

Hourly Weather History & Observations

Time (EST) Temp. Windchill Dew Point Humidity Pressure Visibility Wind Dir Wind Speed Gust Speed Precip Events Conditions
12:33 AM 68.0 °F - 64.4 °F 88% 29.56 in 10.0 mi SSW 8.1 mph - N/A   Mostly Cloudy
12:38 AM 68.0 °F - 64.4 °F 88% 29.56 in 10.0 mi SSW 8.1 mph - N/A   Mostly Cloudy
12:48 AM 68.0 °F - 64.4 °F 88% 29.54 in 10.0 mi SSW 8.1 mph - N/A   Overcast
12:53 AM 68.0 °F - 64.4 °F 88% 29.54 in 10.0 mi South 8.1 mph - N/A   Overcast
12:58 AM 68.0 °F - 64.4 °F 88% 29.55 in 10.0 mi SSW 6.9 mph - N/A   Overcast
1:03 AM 68.0 °F - 64.4 °F 88% 29.54 in 10.0 mi SSW 8.1 mph - N/A   Overcast
1:18 AM 68.0 °F - 64.4 °F 88% 29.53 in 10.0 mi South 8.1 mph - N/A   Overcast
1:43 AM 68.0 °F - 64.4 °F 88% 29.53 in 10.0 mi SSW 9.2 mph - N/A   Overcast
1:51 AM 68.0 °F - 64.4 °F 88% 29.53 in 10.0 mi SSW 8.1 mph - N/A Rain Light Rain
1:58 AM 67.3 °F - 64.6 °F 91% 29.54 in 10.0 mi South 9.2 mph - 0.00 in Rain Light Rain
1:59 AM 68.0 °F - 64.4 °F 88% 29.53 in 10.0 mi South 10.4 mph - N/A Rain Light Rain
2:17 AM 66.2 °F - 64.4 °F 94% 29.52 in 10.0 mi South 11.5 mph - N/A   Overcast
2:48 AM 66.2 °F - 64.4 °F 94% 29.50 in 10.0 mi South 10.4 mph - N/A Rain Light Rain
2:53 AM 66.2 °F - 64.4 °F 94% 29.52 in 10.0 mi WNW 20.7 mph 33.4 mph N/A Rain Light Rain
2:58 AM 65.5 °F - 62.4 °F 90% 29.54 in 6.0 mi WNW 16.1 mph 33.4 mph 0.01 in Rain Light Rain
3:03 AM 57.2 °F - 53.6 °F 88% 29.53 in 4.0 mi NW 8.1 mph 33.4 mph N/A Rain Heavy Rain
3:08 AM 53.6 °F - 53.6 °F 100% 29.54 in 4.0 mi NW 6.9 mph 27.6 mph N/A Rain Heavy Rain
3:13 AM 53.6 °F - 51.8 °F 94% 29.54 in 4.0 mi NW 5.8 mph - N/A Rain Rain
3:23 AM 53.6 °F - 51.8 °F 94% 29.54 in 5.0 mi WNW 4.6 mph - N/A Rain Rain
3:28 AM 53.6 °F - 51.8 °F 94% 29.55 in 7.0 mi NW 4.6 mph - N/A Rain Light Rain
3:33 AM 53.6 °F - 51.8 °F 94% 29.53 in 5.0 mi Variable 3.5 mph - N/A Rain Heavy Rain
3:43 AM 53.6 °F - 51.8 °F 94% 29.53 in 7.0 mi Variable 2.3 mph - N/A Rain Rain
3:53 AM 53.6 °F - 51.8 °F 94% 29.52 in 6.0 mi NNE 1.2 mph - N/A Rain Light Rain
3:58 AM 52.9 °F - 51.8 °F 96% 29.53 in 4.0 mi North 3.5 mph - 0.15 in Rain Heavy Rain
4:03 AM 53.6 °F - 51.8 °F 94% 29.52 in 3.0 mi North 4.6 mph - N/A Rain Heavy Rain
4:08 AM 53.6 °F - 51.8 °F 94% 29.52 in 3.0 mi North 4.6 mph - N/A Rain Heavy Rain
4:13 AM 53.6 °F - 51.8 °F 94% 29.52 in 5.0 mi NNW 3.5 mph - N/A Rain Rain
4:23 AM 51.8 °F - 51.8 °F 100% 29.52 in 3.0 mi NNW 8.1 mph - N/A Rain Heavy Rain
4:33 AM 51.8 °F - 51.8 °F 100% 29.52 in 3.0 mi Variable 4.6 mph - N/A Rain Heavy Rain
4:43 AM 51.8 °F - 50.0 °F 94% 29.52 in 4.0 mi North 5.8 mph - N/A Rain Heavy Rain
4:53 AM 51.8 °F - 50.0 °F 94% 29.52 in 3.0 mi North 8.1 mph - N/A Rain Heavy Rain
4:58 AM 51.3 °F - 50.2 °F 96% 29.53 in 4.0 mi NNW 9.2 mph - 0.35 in Rain Heavy Rain
5:03 AM 50.0 °F - 50.0 °F 100% 29.52 in 6.0 mi North 8.1 mph - N/A Rain Rain
5:08 AM 50.0 °F - 50.0 °F 100% 29.53 in 8.0 mi Variable 3.5 mph - N/A Rain Light Rain
5:18 AM 50.0 °F - 48.2 °F 94% 29.52 in 5.0 mi North 8.1 mph - N/A Rain Rain
5:23 AM 50.0 °F - 48.2 °F 94% 29.52 in 4.0 mi NNE 5.8 mph - N/A Rain Heavy Rain
5:33 AM 50.0 °F - 48.2 °F 94% 29.52 in 7.0 mi NNE 5.8 mph - N/A Rain Rain
5:43 AM 50.0 °F - 48.2 °F 94% 29.51 in 10.0 mi North 4.6 mph - N/A Rain Light Rain
5:44 AM 50.0 °F - 48.2 °F 94% 29.51 in 10.0 mi North 4.6 mph - N/A   Overcast
5:54 AM 50.0 °F - 48.2 °F 94% 29.50 in 10.0 mi North 4.6 mph - N/A   Overcast
5:58 AM 49.5 °F - 48.2 °F 95% 29.52 in 10.0 mi Variable 3.5 mph - 0.12 in   Overcast
6:00 AM 50.0 °F - 48.2 °F 94% 29.52 in 10.0 mi North 5.8 mph - N/A Rain Light Rain
6:10 AM 50.0 °F - 48.2 °F 94% 29.51 in 10.0 mi North 8.1 mph - N/A Rain Light Rain
6:35 AM 50.0 °F - 48.2 °F 94% 29.54 in 7.0 mi North 6.9 mph - N/A Rain Light Rain
6:45 AM 48.2 °F - 48.2 °F 100% 29.53 in 9.0 mi North 8.1 mph - N/A Rain Light Rain
6:58 AM 48.9 °F - 47.3 °F 94% 29.54 in 10.0 mi North 6.9 mph - 0.03 in Rain Light Rain
7:13 AM 48.2 °F - 46.4 °F 93% 29.52 in 10.0 mi North 4.6 mph - N/A Rain Light Rain
7:14 AM 48.2 °F - 46.4 °F 93% 29.53 in 10.0 mi NNE 5.8 mph - N/A Rain Light Rain
7:49 AM 48.2 °F - 46.4 °F 93% 29.56 in 6.0 mi NNW 6.9 mph - N/A Rain Light Rain
7:54 AM 48.2 °F - 46.4 °F 93% 29.54 in 8.0 mi North 6.9 mph - N/A Rain Light Rain
7:58 AM 48.6 °F - 47.1 °F 95% 29.56 in 10.0 mi North 8.1 mph - 0.04 in Rain Light Rain
8:03 AM 48.2 °F - 46.4 °F 93% 29.55 in 10.0 mi North 5.8 mph - N/A Rain Light Rain
8:18 AM 48.2 °F - 46.4 °F 93% 29.55 in 10.0 mi North 4.6 mph - N/A Rain Light Rain
8:33 AM 48.2 °F - 46.4 °F 93% 29.55 in 10.0 mi NNW 8.1 mph - N/A Rain Light Rain
8:36 AM 48.2 °F - 46.4 °F 93% 29.55 in 10.0 mi North 6.9 mph - N/A Rain Light Rain
8:46 AM 48.2 °F - 46.4 °F 93% 29.57 in 10.0 mi Variable 6.9 mph - N/A Rain Light Rain
8:51 AM 48.2 °F - 46.4 °F 93% 29.57 in 10.0 mi North 8.1 mph - N/A Rain Light Rain
8:56 AM 48.2 °F - 46.4 °F 93% 29.57 in 10.0 mi North 13.8 mph - N/A Rain Light Rain
8:58 AM 47.8 °F - 45.7 °F 92% 29.58 in 10.0 mi North 11.5 mph - 0.03 in Rain Light Rain
9:18 AM 46.4 °F 41.1 °F 42.8 °F 87% 29.56 in 10.0 mi North 11.5 mph 25.3 mph N/A Rain Light Rain
9:28 AM 46.4 °F 42.9 °F 42.8 °F 87% 29.55 in 10.0 mi NNE 6.9 mph - N/A Rain Light Rain
9:43 AM 46.4 °F 41.9 °F 44.6 °F 93% 29.56 in 10.0 mi North 9.2 mph - N/A Rain Light Rain
9:47 AM 46.4 °F 42.9 °F 42.8 °F 87% 29.57 in 9.0 mi NNE 6.9 mph - N/A Rain Light Rain
9:58 AM 45.7 °F 39.1 °F 43.9 °F 93% 29.58 in 6.0 mi North 15.0 mph 20.7 mph 0.04 in Rain Rain
10:08 AM 44.6 °F 37.4 °F 41.0 °F 87% 29.58 in 10.0 mi North 16.1 mph 23.0 mph N/A Rain Rain
10:13 AM 44.6 °F 39.2 °F 41.0 °F 87% 29.59 in 10.0 mi North 10.4 mph 23.0 mph N/A Rain Rain
10:42 AM 44.6 °F 39.7 °F 41.0 °F 87% 29.59 in 10.0 mi NNW 9.2 mph - N/A   Overcast
10:58 AM 43.5 °F 38.3 °F 40.3 °F 88% 29.61 in 10.0 mi NNW 9.2 mph - 0.04 in   Overcast
11:08 AM 42.8 °F 36.2 °F 39.2 °F 87% 29.59 in 10.0 mi North 12.7 mph - N/A   Overcast
11:11 AM 42.8 °F 37.0 °F 39.2 °F 87% 29.60 in 10.0 mi NNW 10.4 mph - N/A Rain Light Rain
11:13 AM 42.8 °F 38.6 °F 39.2 °F 87% 29.61 in 10.0 mi Variable 6.9 mph - N/A Rain Light Rain
11:58 AM 42.8 °F 38.0 °F 39.2 °F 87% 29.65 in 10.0 mi NW 8.1 mph - 0.00 in Rain Light Rain
12:23 PM 41.0 °F 34.3 °F 39.2 °F 93% 29.65 in 10.0 mi NW 11.5 mph 18.4 mph N/A Rain Light Rain
12:28 PM 42.8 °F 36.6 °F 39.2 °F 87% 29.66 in 10.0 mi NW 11.5 mph 18.4 mph N/A Rain Light Rain
12:33 PM 41.0 °F 32.8 °F 39.2 °F 93% 29.66 in 9.0 mi NW 16.1 mph 21.9 mph N/A Rain Light Rain
12:38 PM 41.0 °F 34.7 °F 39.2 °F 93% 29.67 in 9.0 mi NW 10.4 mph 21.9 mph N/A Rain Light Rain
12:43 PM 41.0 °F 33.5 °F 39.2 °F 93% 29.67 in 8.0 mi NW 13.8 mph 21.9 mph N/A Rain Light Rain
12:44 PM 41.0 °F 33.9 °F 39.2 °F 93% 29.67 in 8.0 mi NW 12.7 mph - N/A Rain Light Rain
12:54 PM 41.0 °F 32.5 °F 39.2 °F 93% 29.67 in 6.0 mi NNW 17.3 mph 26.5 mph N/A Rain Light Rain
12:58 PM 41.0 °F 33.9 °F 37.4 °F 87% 29.68 in 6.0 mi NNW 12.7 mph 26.5 mph 0.02 in Rain Light Rain
1:03 PM 41.0 °F 35.2 °F 37.4 °F 87% 29.68 in 8.0 mi NNW 9.2 mph 26.5 mph N/A Rain Light Rain
1:13 PM 41.0 °F 34.3 °F 37.4 °F 87% 29.68 in 10.0 mi NNW 11.5 mph 18.4 mph N/A Rain Light Rain
1:23 PM 41.0 °F 35.2 °F 39.2 °F 93% 29.69 in 10.0 mi NNW 9.2 mph 18.4 mph N/A Rain Light Rain
1:58 PM 40.8 °F 33.3 °F 38.5 °F 91% 29.72 in 10.0 mi North 13.8 mph 17.3 mph 0.01 in Rain Light Rain
2:23 PM 41.0 °F 34.3 °F 37.4 °F 87% 29.73 in 10.0 mi NNW 11.5 mph 20.7 mph N/A Rain Light Rain
2:38 PM 41.0 °F 35.8 °F 37.4 °F 87% 29.75 in 10.0 mi NNW 8.1 mph 20.7 mph N/A Rain Light Rain
2:58 PM 40.3 °F 35.5 °F 37.8 °F 91% 29.78 in 10.0 mi North 6.9 mph - 0.01 in Rain Light Rain
3:23 PM 41.0 °F 33.5 °F 35.6 °F 81% 29.80 in 10.0 mi NNW 13.8 mph 19.6 mph N/A Rain Light Rain
3:28 PM 41.0 °F 35.2 °F 35.6 °F 81% 29.80 in 10.0 mi NNW 9.2 mph 19.6 mph N/A Rain Light Rain
3:33 PM 41.0 °F 33.9 °F 35.6 °F 81% 29.81 in 10.0 mi North 12.7 mph 19.6 mph N/A Rain Light Rain
3:43 PM 39.2 °F 33.6 °F 35.6 °F 87% 29.82 in 10.0 mi NNW 8.1 mph 19.6 mph N/A Rain Light Rain
3:53 PM 39.2 °F 33.6 °F 35.6 °F 87% 29.83 in 10.0 mi NNW 8.1 mph 21.9 mph N/A   Light Drizzle
3:55 PM 39.2 °F 33.0 °F 35.6 °F 87% 29.83 in 10.0 mi NW 9.2 mph 21.9 mph N/A   Mostly Cloudy
3:58 PM 39.2 °F 33.0 °F 35.6 °F 87% 29.85 in 10.0 mi NW 9.2 mph 21.9 mph 0.00 in   Mostly Cloudy
4:03 PM 39.2 °F 31.6 °F 35.6 °F 87% 29.84 in 10.0 mi NW 12.7 mph - N/A   Overcast
4:28 PM 39.2 °F 33.0 °F 35.6 °F 87% 29.86 in 10.0 mi NW 9.2 mph - N/A   Overcast
4:33 PM 39.2 °F 35.9 °F 35.6 °F 87% 29.87 in 10.0 mi NW 4.6 mph - N/A   Overcast
4:38 PM 39.2 °F 34.2 °F 35.6 °F 87% 29.87 in 10.0 mi NW 6.9 mph - N/A   Overcast
4:58 PM 39.4 °F 34.5 °F 35.8 °F 87% 29.89 in 10.0 mi WNW 6.9 mph - N/A   Overcast
5:58 PM 37.9 °F 34.4 °F 35.1 °F 89% 29.94 in 10.0 mi NW 4.6 mph - N/A   Partly Cloudy
6:58 PM 37.4 °F 30.8 °F 29.1 °F 72% 29.99 in 10.0 mi NNW 9.2 mph 16.1 mph N/A   Clear
7:58 PM 35.4 °F 26.0 °F 24.1 °F 63% 30.05 in 10.0 mi NNW 15.0 mph 21.9 mph N/A   Clear
8:58 PM 33.4 °F 26.6 °F 19.9 °F 58% 30.11 in 10.0 mi NW 8.1 mph - N/A   Clear
9:58 PM 32.2 °F 27.7 °F 19.4 °F 59% 30.14 in 10.0 mi NW 4.6 mph - N/A   Clear
10:58 PM 30.7 °F 24.1 °F 19.6 °F 63% 30.18 in 10.0 mi WNW 6.9 mph - N/A   Clear
11:58 PM 29.8 °F 23.9 °F 18.9 °F 64% 30.21 in 10.0 mi NW 5.8 mph - N/A   Clear